[[{"header":{"parameterUnit":"m.s-1","parameterCategory":1,"la1":30.2992,"la2":30.254,"lo1":-89.0895,"lo2":-89.0443,"dy":0.0025,"dx":0.0025,"nx":19,"ny":19,"refTime":"2026-05-04T21:00:00:Z","depth":0,"parameterNumber":2,"parameterNumberName":"U-component_of_WINDS"},"data":[0,0,0,-0.6461,-0.6461,-0.6493,-0.6493,-0.6527,-0.6527,0,0,0,0,0,0,0,0,0,0,0,-0.6447,-0.6447,-0.6461,-0.6461,-0.6493,-0.6493,-0.6527,-0.6527,0,0,0,0,0,0,0,0,0,0,0,-0.6446,-0.6447,-0.6447,-0.6462,-0.6493,-0.6493,-0.6527,-0.6506,0,0,0,0,0,0,0,0,0,0,-0.6476,-0.6458,-0.6447,-0.6447,-0.6462,-0.6493,-0.6493,-0.6505,-0.6507,-0.651,0,-0.651,0,-0.6519,-0.6529,-0.6529,0,0,0,-0.6466,-0.6456,-0.6469,-0.6447,-0.6462,-0.6493,-0.648,-0.6506,-0.6509,-0.6513,-0.651,-0.6512,-0.652,-0.6529,-0.6529,-0.6529,-0.6529,0,0,-0.6464,-0.645,-0.6467,-0.647,-0.6464,-0.6479,-0.6481,-0.6508,-0.6505,-0.651,-0.6513,-0.652,-0.6529,-0.653,-0.6529,-0.6529,0,0,0,-0.6456,-0.6448,-0.6461,-0.6469,-0.6475,-0.648,-0.6482,-0.6504,-0.6509,-0.6513,-0.6521,-0.653,-0.653,-0.6529,-0.6529,-0.6505,0,0,0,-0.6455,-0.6444,-0.646,-0.6451,-0.6474,-0.6489,-0.6477,-0.6507,-0.651,-0.652,-0.653,-0.653,-0.653,-0.6529,-0.6506,-0.6496,0,0,0,-0.6446,-0.6443,-0.6445,-0.6451,-0.6464,-0.6489,-0.6496,-0.6508,-0.6515,-0.6529,-0.653,-0.653,-0.6529,-0.6507,-0.6498,-0.6492,0,0,0,-0.6433,-0.6424,-0.6445,-0.6438,-0.6463,-0.6474,-0.6496,-0.6505,-0.6515,-0.653,-0.653,-0.6529,-0.6508,-0.6499,-0.6493,-0.6484,-0.6479,0,0,-0.6414,-0.6421,-0.6419,-0.6438,-0.6441,-0.647,-0.6471,-0.6493,-0.6508,-0.6522,-0.6522,-0.6506,-0.6498,-0.6492,-0.6456,-0.6452,0,0,0,-0.6408,-0.6406,-0.641,-0.6418,-0.6435,-0.6449,-0.6473,-0.6481,-0.6493,-0.6512,-0.6503,-0.6498,-0.6496,-0.6492,-0.6488,-0.6487,-0.6527,-0.6527,-0.6527,-0.6361,-0.638,-0.6377,-0.64,-0.6408,-0.6433,-0.6441,-0.6458,-0.6475,-0.6473,-0.6477,-0.6452,-0.6447,-0.6445,-0.6443,-0.6474,-0.6474,-0.6474,-0.6474,-0.6335,-0.6335,-0.6359,-0.6364,-0.6385,-0.639,-0.6415,-0.6427,-0.6435,-0.6451,-0.6449,-0.6464,-0.6439,-0.6439,-0.6472,-0.6472,-0.6472,-0.6473,-0.6473,-0.6306,-0.631,-0.632,-0.6334,-0.6343,-0.6367,-0.6374,-0.6393,-0.6412,-0.641,-0.6416,-0.6417,-0.642,-0.6412,-0.6412,-0.6412,-0.6412,-0.6411,-0.6411,-0.6272,-0.6284,-0.6287,-0.6304,-0.6313,-0.6326,-0.6352,-0.6361,-0.6375,-0.6389,-0.6389,-0.6407,-0.6434,-0.644,-0.641,-0.641,-0.6411,-0.6411,-0.6411,-0.6238,-0.6249,-0.6253,-0.6261,-0.6284,-0.6292,-0.6316,-0.6333,-0.6343,-0.6346,-0.6365,-0.6381,-0.639,-0.6393,-0.6398,-0.636,-0.636,-0.636,-0.636,-0.6213,-0.622,-0.6229,-0.624,-0.6254,-0.6277,-0.6282,-0.6303,-0.6326,-0.6334,-0.6343,-0.6351,-0.6354,-0.6362,-0.6365,-0.637,-0.6326,-0.6326,-0.6326,-0.6194,-0.6202,-0.6203,-0.6224,-0.6244,-0.626,-0.6266,-0.628,-0.6309,-0.6325,-0.6341,-0.6342,-0.6357,-0.636,-0.6376,-0.6381,-0.6391,0,0]},{"header":{"parameterUnit":"m.s-1","parameterCategory":1,"la1":30.2992,"la2":30.254,"lo1":-89.0895,"lo2":-89.0443,"dy":0.0025,"dx":0.0025,"nx":19,"ny":19,"refTime":"2026-05-04T21:00:00:Z","depth":0,"parameterNumber":3,"parameterNumberName":"V-component_of_WINDS"},"data":[0,0,0,7.2197,7.2198,7.2228,7.2228,7.2274,7.2274,0,0,0,0,0,0,0,0,0,0,0,7.2193,7.2194,7.2197,7.2198,7.2228,7.2228,7.2274,7.2274,0,0,0,0,0,0,0,0,0,0,0,7.2193,7.2194,7.2194,7.2198,7.2228,7.2228,7.2274,7.2248,0,0,0,0,0,0,0,0,0,0,7.2218,7.2219,7.2194,7.2194,7.2199,7.2228,7.2228,7.2247,7.225,7.2264,0,7.2278,0,7.2277,7.2278,7.2278,0,0,0,7.2194,7.2217,7.2221,7.2194,7.2199,7.2228,7.2214,7.2248,7.2252,7.2268,7.2278,7.228,7.2278,7.2278,7.2279,7.2375,7.2375,0,0,7.2192,7.2201,7.2218,7.2223,7.222,7.2213,7.2215,7.225,7.2262,7.2279,7.2281,7.2279,7.2279,7.2279,7.2374,7.2375,0,0,0,7.219,7.22,7.2203,7.2221,7.2226,7.2214,7.2216,7.2261,7.2261,7.2281,7.2279,7.2279,7.228,7.2374,7.2375,7.2416,0,0,0,7.2189,7.2199,7.2202,7.2208,7.2226,7.2244,7.2226,7.2259,7.2262,7.2279,7.2279,7.228,7.2373,7.2374,7.2413,7.2433,0,0,0,7.219,7.2199,7.2205,7.2208,7.2222,7.2243,7.2245,7.2259,7.2261,7.2278,7.228,7.2372,7.2374,7.2411,7.2429,7.2462,0,0,0,7.2192,7.224,7.2206,7.2258,7.2222,7.2269,7.2245,7.2279,7.2299,7.2279,7.2373,7.2374,7.241,7.2427,7.2459,7.249,7.2504,0,0,7.2257,7.2248,7.2278,7.2249,7.2305,7.2264,7.2325,7.2334,7.2326,7.2359,7.2361,7.2414,7.2429,7.2461,7.258,7.2591,0,0,0,7.2302,7.2323,7.2336,7.2356,7.2366,7.2375,7.2374,7.2377,7.2405,7.2345,7.2434,7.2443,7.2461,7.2476,7.2485,7.2501,7.2382,7.2381,7.2381,7.2404,7.2395,7.2445,7.2439,7.2459,7.2458,7.2473,7.2478,7.246,7.2482,7.2491,7.2564,7.2582,7.2589,7.2605,7.2507,7.2507,7.2507,7.2507,7.2498,7.2528,7.2507,7.2547,7.2537,7.257,7.2572,7.2559,7.2588,7.2556,7.2572,7.2537,7.2601,7.2615,7.251,7.251,7.2509,7.2509,7.2509,7.2564,7.2577,7.2582,7.2612,7.2635,7.2628,7.2658,7.2646,7.2636,7.2651,7.266,7.266,7.2658,7.2657,7.2657,7.2657,7.2657,7.2658,7.2658,7.2631,7.2635,7.2663,7.2679,7.2691,7.2706,7.2707,7.2719,7.2728,7.2718,7.2718,7.2699,7.261,7.2588,7.2662,7.2661,7.266,7.266,7.266,7.2729,7.2706,7.2748,7.2761,7.2779,7.2804,7.279,7.2815,7.2823,7.2838,7.2817,7.2753,7.2742,7.2734,7.2716,7.2818,7.2818,7.2818,7.2818,7.2784,7.2779,7.2821,7.2842,7.2862,7.2854,7.2903,7.2905,7.2903,7.2907,7.2891,7.2866,7.2859,7.2852,7.2842,7.2824,7.2952,7.2952,7.2953,7.2844,7.2841,7.2884,7.2884,7.2898,7.291,7.2956,7.298,7.2973,7.2958,7.291,7.2905,7.2864,7.2851,7.2833,7.2818,7.2786,0,0]}]]